Wind_Speed
13 17 17 15 7 7 15 18 12 5 2 11 8 11 16 17 9 3 23 35 37 32 32 29 28 29 27 24 25 24 24 24 24 26 26 26 26 26 27 27 26 26 26 26 24 24 23 24 25
13 14 15 6 10 11 13 12 4 12 13 8 4 3 19 10 16 6 21 35 33 31 30 30 28 27 27 26 25 24 23 24 25 26 25 26 25 25 26 26 25 26 25 25 24 24 25 28 32
13 12 8 6 12 14 14 15 6 6 9 2 2 11 7 8 21 22 35 37 31 29 28 32 31 28 25 26 26 24 24 25 26 25 24 24 24 25 24 25 25 25 25 23 23 27 30 31 28
9 10 6 11 18 19 20 8 1 9 3 3 12 15 8 13 1 22 33 32 30 29 27 33 31 29 27 27 26 25 25 26 27 24 23 24 24 24 23 23 24 25 24 23 24 27 29 27 23
12 6 11 16 20 21 20 8 13 12 2 7 2 15 11 13 16 27 31 30 31 32 28 31 31 29 28 27 26 26 26 27 26 24 24 24 24 23 22 23 25 25 22 23 25 28 27 26 29
9 10 13 14 19 20 17 19 10 5 6 1 1 8 7 9 22 24 28 29 35 33 29 28 29 28 29 27 26 26 27 28 25 23 24 24 23 22 20 25 25 24 22 23 26 27 27 25 24
11 11 15 17 19 19 17 9 6 7 8 6 3 7 9 14 24 26 26 32 35 35 30 27 26 26 27 26 27 27 29 28 25 23 24 23 22 20 20 24 24 24 20 23 25 27 27 25 24
11 11 19 18 15 18 12 6 3 1 8 9 4 3 12 19 27 28 28 32 33 34 31 27 25 24 24 26 27 29 29 26 24 23 23 22 20 18 22 24 23 23 21 22 26 27 28 28 26
12 10 14 18 18 18 2 3 5 3 7 12 4 14 19 22 26 31 27 23 28 29 29 28 27 25 23 25 28 29 28 25 23 23 21 22 21 23 20 21 23 21 19 22 27 30 27 25 23
10 12 19 20 18 13 4 6 5 8 9 11 11 19 19 17 25 22 22 21 22 27 28 29 28 27 26 24 30 29 27 26 24 22 23 22 22 20 21 20 21 19 21 27 30 28 23 20 20
17 16 18 21 15 8 12 6 9 9 11 14 16 19 16 16 17 18 20 22 23 26 27 30 29 29 27 27 26 26 27 25 23 22 19 24 27 21 20 20 18 24 23 25 21 17 7 10 17
20 19 19 20 20 3 11 14 10 7 6 10 8 22 17 14 10 15 21 24 24 27 27 31 29 29 26 28 26 26 25 25 24 20 19 25 23 23 17 15 15 19 14 13 11 5 10 14 13
19 18 20 18 18 7 8 15 15 8 5 9 11 13 15 11 16 18 20 23 24 26 31 30 30 27 28 27 24 27 25 25 24 21 22 22 21 22 18 16 15 18 10 11 15 15 14 14 14
18 18 14 16 22 14 13 16 16 11 11 10 10 15 16 17 19 19 22 26 25 29 30 31 29 26 31 26 23 27 25 25 27 23 23 23 20 19 18 17 16 12 12 14 15 16 16 15 13
15 20 18 19 19 16 15 21 23 17 13 13 13 12 15 19 28 24 22 24 29 28 32 31 30 28 26 24 21 24 20 22 23 24 24 18 19 22 19 17 17 16 16 16 18 15 16 15 15
18 18 17 19 21 20 16 25 19 20 20 18 19 15 14 16 26 30 27 24 24 28 33 34 30 31 29 17 23 22 21 20 16 23 22 20 21 22 22 17 18 13 18 17 18 16 16 16 14
15 18 23 22 23 22 24 26 20 22 24 19 16 15 15 14 13 31 33 28 25 28 33 32 33 32 36 21 22 23 25 19 14 20 22 21 20 20 22 18 17 19 18 17 18 17 17 16 16
17 20 21 24 23 23 25 23 17 18 13 21 16 17 15 16 17 20 35 33 31 27 29 30 31 32 34 29 23 25 26 20 16 20 19 26 20 22 24 20 17 20 19 19 18 18 17 17 16
22 25 28 26 20 24 23 22 21 17 12 12 15 17 15 12 14 17 24 34 32 31 26 30 30 32 31 32 27 30 26 21 19 20 17 29 18 24 26 23 21 22 22 20 19 19 19 18 15
21 23 26 24 25 21 18 22 16 19 18 15 13 13 16 16 13 15 20 31 30 30 33 31 33 30 31 31 26 27 31 29 18 19 17 21 24 23 26 26 27 25 22 21 22 21 21 20 19
19 19 20 24 22 24 15 15 16 17 21 18 16 14 12 14 17 12 13 26 28 28 30 34 34 35 33 28 32 25 22 20 25 24 25 25 30 23 27 26 29 27 23 26 26 24 24 23 22
18 20 24 24 20 16 20 15 19 19 20 16 18 15 13 16 13 10 17 19 27 26 30 34 31 33 32 33 35 34 30 26 24 25 27 28 26 32 27 27 29 32 25 25 30 28 27 23 24
16 16 21 24 22 21 27 14 16 22 20 23 15 15 11 7 7 11 7 23 23 29 26 27 32 31 33 37 35 33 27 26 25 26 33 34 30 32 34 31 32 35 32 31 30 31 30 25 24
14 16 17 19 16 16 22 19 16 15 19 23 27 21 17 14 10 8 16 10 15 33 33 30 30 31 36 40 36 35 34 31 28 28 26 28 30 35 39 36 35 37 35 30 34 32 35 32 25
3 10 9 9 13 13 18 16 13 13 15 18 14 10 13 19 13 10 11 3 5 5 32 32 33 31 37 40 38 37 34 34 31 29 28 27 27 32 39 45 43 38 37 34 34 37 34 37 32
16 11 6 9 12 15 22 17 10 17 22 16 17 20 20 17 15 15 16 18 21 19 12 26 30 30 35 37 38 38 38 30 30 33 28 30 27 30 34 39 38 43 40 37 38 37 38 39 39
6 8 11 14 11 3 8 17 15 20 23 22 24 18 17 16 14 14 18 22 18 22 23 22 16 24 32 36 36 36 35 33 32 32 33 29 30 29 32 38 38 38 43 41 37 36 37 35 40
10 6 4 3 2 6 12 5 8 12 14 13 11 13 15 16 14 13 18 23 25 24 25 26 21 10 25 32 33 35 34 36 33 32 33 37 33 28 30 37 40 37 39 41 39 35 35 34 36
0 6 6 7 1 4 3 4 10 15 13 15 16 17 17 16 15 13 16 20 23 24 24 27 25 20 15 28 31 34 35 35 35 35 35 37 35 35 28 31 38 38 38 41 41 38 37 38 35
22 17 7 3 3 4 4 6 14 18 16 16 16 18 19 18 16 15 18 19 19 21 23 25 28 28 22 16 28 33 36 39 36 35 33 36 37 32 38 30 33 39 41 42 43 40 36 37 38
Wind_Direction
303 303 283 283 261 236 260 263 4 210 206 86 248 32 97 95 122 41 114 113 122 130 135 134 137 145 144 142 137 133 129 125 121 121 119 116 116 113 109 103 100 95 91 89 86 87 88 89 89
309 300 282 277 261 253 254 274 6 299 94 79 83 292 85 119 144 180 111 122 128 132 132 134 135 141 147 144 142 137 133 127 125 123 120 120 118 115 111 105 100 94 91 88 89 88 91 94 95
294 281 279 244 245 249 265 281 339 32 39 33 112 79 88 357 129 147 128 124 129 133 133 137 137 139 147 147 144 141 136 131 128 126 123 121 120 115 110 103 99 96 93 91 89 95 100 99 96
269 243 241 264 259 247 243 229 326 270 153 319 27 84 94 136 324 131 129 127 133 133 135 140 140 141 145 146 146 142 138 135 132 126 124 123 120 116 110 107 101 97 96 95 94 101 103 100 89
245 270 246 248 248 262 280 261 162 253 123 225 52 91 93 98 118 137 134 134 140 130 136 143 142 144 145 145 146 144 141 138 134 130 127 125 125 121 114 108 102 99 98 94 102 108 105 98 97
262 228 258 255 253 257 252 261 138 171 266 288 342 116 89 126 128 141 136 137 132 131 136 143 146 146 146 146 146 146 142 140 136 133 129 131 128 120 115 108 105 102 100 98 109 111 107 103 105
256 265 247 260 270 272 244 227 143 152 246 232 264 295 128 142 139 142 136 127 127 132 137 142 144 148 149 148 147 147 143 141 139 136 137 133 127 120 112 110 107 107 103 104 113 113 110 110 107
253 266 270 274 274 276 320 167 119 12 201 244 307 328 148 136 145 137 118 117 127 133 136 140 143 144 148 147 147 146 144 142 142 140 139 134 126 118 114 111 110 109 109 109 117 117 112 104 102
263 261 257 255 258 271 158 124 137 104 268 255 137 80 122 138 119 112 106 113 121 130 140 145 145 144 144 149 147 143 146 146 143 142 139 133 121 111 117 117 115 114 111 114 119 119 112 104 101
218 247 246 263 273 322 18 149 209 157 231 224 137 104 125 149 126 127 136 136 139 139 149 152 152 150 147 147 149 146 151 153 149 150 141 135 130 128 124 122 116 110 108 117 118 117 110 104 100
237 243 267 279 325 340 314 330 258 157 231 230 161 131 137 158 129 144 150 149 151 154 154 157 157 155 153 153 151 152 151 153 157 164 150 145 139 136 131 123 118 119 118 129 134 140 125 108 115
255 250 260 274 286 345 292 289 281 192 278 50 180 134 140 151 167 167 155 158 162 166 158 164 164 161 159 156 159 160 163 166 161 168 162 146 146 141 140 128 130 129 134 134 133 110 101 110 96
260 251 257 264 278 249 270 275 268 209 200 97 117 122 140 164 168 167 167 173 169 166 166 166 169 167 161 162 169 168 170 167 165 164 166 152 157 146 149 155 157 162 153 169 138 123 116 113 106
291 282 279 275 267 256 241 253 259 241 237 163 169 160 163 170 177 178 187 174 178 173 172 165 170 170 162 166 174 175 170 167 169 170 165 158 156 154 160 163 168 160 156 142 137 137 133 124 119
284 275 273 258 265 242 253 248 242 234 219 233 206 205 181 178 174 181 185 174 177 179 167 167 171 171 163 174 173 160 160 156 172 170 158 162 171 162 166 169 168 160 154 148 147 147 134 132 131
277 267 260 251 243 246 234 250 235 228 232 204 219 210 210 190 173 176 182 182 176 174 165 167 170 180 172 159 168 162 159 167 166 174 174 166 168 169 168 174 172 169 151 154 151 151 151 141 137
243 255 252 251 243 240 219 243 246 257 213 207 200 210 208 203 201 169 174 175 179 176 176 168 169 173 183 166 168 180 168 181 186 161 169 162 175 173 176 180 176 171 162 162 164 163 157 150 146
262 250 237 248 254 225 235 230 238 270 228 204 200 201 198 207 204 185 167 172 179 184 179 175 168 171 174 178 164 169 178 181 187 167 174 174 184 179 182 184 182 178 174 169 172 166 161 158 160
283 272 271 277 268 229 252 224 207 229 208 216 211 222 188 209 195 188 171 164 170 179 178 177 173 170 171 173 163 168 184 179 190 184 184 183 179 193 184 187 182 180 181 178 177 169 166 166 168
302 290 284 276 272 277 260 227 239 242 201 206 216 218 190 176 223 182 182 156 168 173 180 178 180 174 176 171 172 177 181 180 185 177 188 186 184 196 192 191 186 186 187 186 178 176 172 169 168
303 291 287 287 282 285 240 257 239 242 244 194 207 202 200 190 189 187 170 157 172 176 179 180 188 184 184 174 176 169 175 205 176 188 189 189 192 194 202 200 193 190 192 191 184 182 180 176 180
291 296 301 298 285 273 264 233 225 242 262 240 189 214 210 187 176 194 167 176 179 181 180 185 191 185 185 185 172 175 178 194 207 181 184 192 193 197 201 201 202 200 196 194 191 190 186 186 188
288 297 293 293 292 276 263 264 226 221 227 253 221 204 202 243 212 178 203 178 185 179 183 185 187 190 183 189 182 182 183 193 196 191 190 191 197 199 203 204 206 205 203 208 196 194 198 195 193
317 301 278 265 268 266 268 257 255 231 228 223 226 214 204 208 199 198 186 233 195 176 178 184 190 186 190 190 189 189 194 198 196 198 194 188 199 199 199 205 205 207 205 206 209 205 206 202 200
309 298 272 248 239 248 236 250 251 274 31 23 21 130 93 55 51 53 35 77 234 264 172 181 179 186 190 192 194 197 202 205 212 208 206 193 197 200 204 203 205 202 205 202 202 208 215 207 206
289 255 266 255 240 230 242 226 219 31 23 47 60 50 56 46 32 20 19 10 357 356 15 185 186 184 197 196 196 200 209 209 207 207 209 212 207 202 207 207 206 202 203 203 212 213 217 215 213
337 248 268 277 278 305 252 213 51 17 26 13 22 38 40 38 34 20 4 357 355 350 342 355 220 199 197 205 202 205 209 209 212 212 217 220 225 221 204 210 208 208 207 211 211 209 214 215 218
247 315 284 112 199 233 205 148 39 0 16 360 30 35 35 27 14 13 0 352 347 339 329 324 327 278 213 208 208 205 210 214 214 216 217 224 222 224 221 219 214 208 209 209 209 206 214 213 220
137 219 225 244 215 318 93 87 11 2 2 359 359 25 23 15 7 352 347 340 334 329 324 320 320 308 298 214 210 208 211 222 222 216 222 225 228 231 233 229 218 211 212 214 213 215 215 214 216
31 18 300 326 14 326 36 75 23 8 2 1 6 4 360 359 351 350 336 329 324 324 324 318 317 315 308 286 221 214 215 215 220 225 217 222 227 231 227 231 220 211 213 215 216 216 215 212 212
Height
775 774 772 766 784 768 768 746 728 734 732 721 726 735 754 775 799 804 775 778 784 790 795 800 807 812 816 821 825 830 832 835 838 841 843 844 846 849 850 851 853 854 856 857 859 860 861 862 863
775 775 771 767 785 786 766 734 747 733 724 721 725 731 747 779 772 776 776 782 790 794 795 802 808 813 818 822 827 831 835 837 841 844 846 848 850 852 854 854 857 858 860 861 862 862 864 866 867
776 775 774 773 774 782 769 738 743 732 728 727 729 732 763 784 757 769 777 784 794 797 799 802 810 815 820 824 829 833 836 840 843 847 849 851 854 856 857 858 861 861 864 865 866 866 868 869 871
774 768 768 778 774 753 747 736 737 739 736 730 729 760 762 755 766 773 777 784 793 798 800 807 811 817 821 825 831 835 839 843 846 849 853 854 857 859 861 862 864 865 867 868 869 870 872 873 874
772 767 776 774 766 750 733 730 732 740 737 738 737 756 764 767 772 775 779 785 793 797 804 811 813 818 822 827 832 837 841 845 849 852 856 857 860 862 864 866 867 868 871 871 872 874 876 877 878
773 765 783 778 761 742 731 723 727 737 737 740 748 753 774 769 771 777 782 787 792 798 808 813 817 821 824 828 834 838 843 848 852 855 858 860 863 865 867 868 871 872 873 874 876 877 879 881 881
777 771 774 765 755 741 728 717 731 739 745 747 741 757 775 771 772 778 785 791 796 802 808 815 820 824 828 830 834 840 845 850 853 857 860 863 866 868 870 872 874 875 877 878 879 881 883 884 885
766 768 774 761 758 750 723 720 726 738 748 741 740 757 777 771 774 781 789 795 799 803 808 815 821 827 831 834 837 842 847 852 856 859 862 865 869 871 873 875 877 879 879 881 883 885 887 887 888
760 780 778 765 756 742 725 737 732 736 747 745 747 752 764 772 776 778 789 797 801 805 811 818 823 828 833 836 840 844 849 854 859 862 865 867 871 874 876 878 880 882 882 884 886 888 890 891 892
769 777 769 747 735 738 733 737 738 748 753 749 754 763 770 772 777 783 788 797 803 807 815 819 824 828 833 838 842 845 850 855 859 864 866 869 872 875 878 882 883 884 886 887 889 890 890 892 894
761 772 756 744 740 735 740 739 736 747 757 747 752 763 772 777 780 787 791 797 803 808 814 819 823 828 833 837 842 847 851 855 860 863 868 870 872 876 880 884 886 887 889 890 891 893 893 896 897
765 754 753 746 738 746 751 745 743 747 750 743 740 754 770 780 785 788 792 797 802 808 813 818 823 827 832 837 842 847 851 855 859 863 868 870 873 876 881 886 887 889 891 891 893 894 896 896 898
759 752 748 745 743 746 752 755 750 750 747 751 752 759 769 779 787 791 794 798 802 806 811 818 821 827 830 836 841 846 849 854 857 863 867 870 873 876 882 886 887 889 891 893 895 897 898 900 900
758 752 750 749 750 746 756 757 752 749 747 752 756 761 769 777 785 790 792 795 800 805 810 815 821 825 829 835 839 844 848 852 856 861 865 869 872 876 882 885 887 890 892 893 896 898 900 902 903
762 767 756 757 751 749 751 759 757 747 748 753 756 759 760 768 778 785 788 791 796 802 808 813 819 823 828 833 837 841 846 851 855 859 864 868 871 876 881 885 887 889 892 894 896 899 901 903 905
773 767 771 756 751 746 753 757 744 743 744 749 754 756 758 759 766 776 784 790 794 799 804 810 815 821 826 832 835 839 844 850 855 857 863 867 872 876 880 885 887 890 892 894 896 899 902 903 906
770 774 764 756 741 742 745 751 743 731 734 741 748 751 755 758 760 767 776 785 792 797 802 808 813 818 824 831 834 839 846 851 855 856 862 866 871 875 880 884 887 889 892 894 896 899 900 903 906
769 758 754 752 739 731 735 736 740 729 727 734 739 744 749 753 758 761 769 778 787 795 800 806 812 817 824 829 834 838 844 849 853 855 860 865 870 873 878 882 885 888 891 893 895 898 900 903 905
761 758 753 737 725 729 725 725 733 730 735 737 739 738 743 750 751 758 764 772 782 790 798 804 810 815 820 826 831 836 842 846 851 853 858 864 868 872 875 879 883 886 889 892 894 896 899 902 904
778 771 760 742 731 731 722 728 725 726 729 735 737 736 738 747 753 754 762 772 780 786 793 801 806 812 817 822 829 834 838 839 846 850 854 859 865 870 872 875 880 884 887 890 891 894 897 900 902
786 782 772 764 746 732 733 741 736 728 723 726 731 733 737 743 750 753 760 770 778 786 791 797 805 809 813 818 825 833 838 843 838 846 848 849 857 865 869 872 876 881 884 886 889 891 894 897 900
799 789 784 777 772 767 736 754 744 741 733 723 727 731 733 737 744 750 757 765 775 782 787 794 801 806 811 814 820 825 829 835 837 836 845 847 852 859 864 868 872 877 880 883 884 888 890 894 896
800 796 795 791 783 773 756 756 737 730 741 731 723 727 733 737 742 749 754 760 766 775 783 790 796 803 807 810 815 822 827 830 833 835 840 838 841 851 857 862 866 871 876 880 881 884 887 889 892
797 799 796 793 790 786 766 758 749 733 730 722 719 720 731 736 741 747 753 759 763 769 777 784 791 798 802 808 812 817 822 825 827 831 836 836 840 843 846 855 859 863 869 874 877 880 883 885 887
808 811 810 806 795 786 767 768 755 731 737 726 716 719 730 744 749 753 757 761 765 769 772 779 784 792 798 802 808 813 817 821 825 827 830 831 835 839 840 841 848 855 861 867 870 874 878 880 882
808 809 815 809 795 782 762 761 753 767 766 747 745 747 751 760 765 768 769 772 773 772 775 777 782 786 793 797 802 807 811 817 820 823 825 827 830 832 838 841 845 846 852 860 863 867 871 874 877
804 800 795 797 788 820 772 754 770 786 789 789 787 775 772 773 776 781 782 783 782 781 779 783 784 785 788 793 797 802 806 811 814 818 822 824 827 829 833 836 841 846 845 851 856 859 862 867 870
820 805 808 817 817 801 765 783 814 814 815 805 797 787 784 786 789 787 787 789 791 790 787 784 785 785 787 790 793 797 801 806 809 813 815 818 821 825 827 830 834 839 843 844 849 852 856 860 863
810 808 801 792 791 804 784 826 838 834 828 825 804 797 801 801 802 801 801 802 801 798 794 788 785 784 785 787 788 792 795 800 804 805 808 811 814 818 822 826 828 833 837 840 842 845 848 851 856
817 811 796 804 806 808 808 842 844 837 833 827 817 815 811 808 808 808 810 811 809 806 802 795 787 783 781 783 784 786 788 790 796 799 801 804 806 810 815 819 822 823 826 831 834 837 841 844 846